Location: Unspecified
(0.0000°N, 0.0000°E)
Time: 10:32:42
(UTC+00:00)

FAST 1 (USA 222) - Pass Details

Date: 05 June 2024
Orbit: 613 x 632 km, 72.0° (Epoch: 13 June)

Event Time Altitude Azimuth Distance (km) Brightness Sun altitude
Rises 18:25:40 0° 340° (NNW) 2,884 ? -6.2°
Reaches altitude 10° 18:27:55 10° 337° (NNW) 1,984 ? -6.7°
Maximum altitude 18:32:20 65° 256° (WSW) 690 ? -7.8°
Drops below altitude 10° 18:36:47 10° 174° (S) 2,004 ? -8.8°
Sets 18:39:04 0° 171° (S) 2,916 ? -9.3°
